Regional Weather Roundup
Issued by NWS Grand Forks, ND

Home | Current Version | Previous Version | Graphics & Text | Print | Product List | Glossary On
Versions: 1 2 3 4 5 6 7 8 9 10 11 12 13 14 15 16 17 18 19 20 21 22 23 24 25 26 27 28 29 30 31 32 33 34 35 36 37 38 39 40 41 42 43 44 45 46 47 48 49 50
027
ASUS43 KFGF 250531
RWRFGF
PRAIRIE TO PINES  WEATHER ROUNDUP
NATIONAL WEATHER SERVICE EASTERN NORTH DAKOTA/GRAND FORKS ND
1200 AM CDT SUN JUN 25 2017

 **SATELLITE DATA USED TO AUGMENT SKY COVER AT AUTOMATED STATIONS**
 *****  WEATHER ACROSS EASTERN NORTH DAKOTA  *****

CITY           SKY/WX    TMP DP  RH WIND       PRES   REMARKS
GRAND FORKS    CLOUDY    52  47  83 NW9       30.17S
GRAND FRKS AFB CLOUDY    52  43  72 NW9       30.19S
DEVILS LAKE    FAIR      47  44  90 NW8       30.24R
FARGO          CLOUDY    53  42  66 NW13      30.18R
WAHPETON ARPT  CLOUDY    50  43  76 NW6       30.19S
$$

 ***** WEATHER ACROSS CENTRAL AND WESTERN NORTH DAKOTA  *****

CITY           SKY/WX    TMP DP  RH WIND       PRES   REMARKS
BISMARCK       FAIR      51  39  63 W5        30.29S
MINOT          FAIR      49  39  68 SW8       30.25S
JAMESTOWN      CLOUDY    51  48  89 NW7       30.23R
MINOT AFB      FAIR      43  39  86 SW6       30.24S
GARRISON         N/A     44  37  76 CALM      30.27S
WILLISTON      FAIR      49  38  65 CALM      30.27S
DICKINSON      FAIR      44  33  65 S5        30.30S
HETTINGER      FAIR      44  31  60 CALM      30.34R
$$

 *****  OTHER AIRPORT OBSERVATIONS IN OUR AREA  *****

CITY           SKY/WX    TMP DP  RH WIND       PRES   REMARKS
WALHALLA       NOT AVBL
GRAFTON AIRPOR FAIR      48  45  87 NW7       30.21R
VALLEY CITY AR CLOUDY    50  43  76 NW7       30.24R
CANDO          NOT AVBL
CAVALIER APRT  NOT AVBL
GWINNER        CLOUDY    52  41  66 NW12      30.22S
SHEYENNE NWR     N/A     51  44  76 NW3       29.95S
ROLLA            N/A     43  43 100 W8        30.23S
 ***** THE ABOVE OBSERVATIONS ARE NON NWS ARE NOT QUALITY
       CONTROLLED AND MAY MIS-REPORT RAIN FOR SNOW...
$$

  *****  WEATHER ACROSS NORTHERN MINNESOTA  *****

CITY           SKY/WX    TMP DP  RH WIND       PRES   REMARKS
FLAG ISLAND    MOCLDY    54  48  82 NW16      30.09R
WARROAD        RAIN      48  46  93 NW7       30.12S
ROSEAU         LGT RAIN  50  45  81 NW8       30.13S
HALLOCK        CLOUDY    50  46  87 NW6       30.17S
THF RVR FALLS  CLOUDY    50  48  93 NW15      30.15R
BAUDETTE       CLOUDY    53  51  93 N10       30.07R
WASKISH        CLOUDY    55  52  88 N7        30.06R
CROOKSTON      CLOUDY    52  46  82 N13       30.17R
STEPHEN NDAWN    N/A     52  43  71 N12         N/A
GREENBUSH NDAW   N/A     50  48  93 NW9         N/A
$$
  *****  WEATHER ACROSS CENTRAL AND WEST MINNESOTA  *****

CITY           SKY/WX    TMP DP  RH WIND       PRES   REMARKS
FOSSTON        DRIZZLE   46  46 100 NW12      30.13R
BEMIDJI        DRIZZLE   52  51  97 NW14      30.07R
PARK RAPIDS    LGT RAIN  52  48  86 NW12      30.09R FOG
ELBOW LAKE     CLOUDY    49  47  94 W18       30.17R
WADENA         CLOUDY    50  46  87 NW12G17   30.11S
DETROIT LAKES  DRIZZLE   48  46  93 NW15G22   30.15R
MOORHEAD       CLOUDY    52  43  71 NW14      30.18S
FERGUS FALLS   CLOUDY    48  48 100 NW15      30.16S
MORRIS MN      MOCLDY    54  46  76 NW14G22   30.16R
STAPLES        CLOUDY    50  46  87 W12       30.10S
$$
  *****  WEATHER ELSEWHERE ACROSS MINNESOTA  *****

CITY           SKY/WX    TMP DP  RH WIND       PRES   REMARKS
DULUTH         FAIR      52  49  89 NW8       29.99S
INTRNTL FALLS  CLOUDY    54  51  90 N7        30.04R
ELY            CLOUDY    54  52  94 NW5       30.00S
CLOQUET        FAIR      52  45  76 W5        30.01S
WHEATON        CLOUDY    52  45  76 NW13G22   30.21R
BRAINERD       CLOUDY    53  49  86 NW14G21   30.08R
HIBBING        CLOUDY    52  50  93 NW6       30.01R
ALEXANDRIA     CLOUDY    52  46  80 NW16G26   30.14S
SAINT CLOUD    CLOUDY    54  50  86 NW9       30.09S
MINNEAPOLIS    FAIR      57  47  69 NW12      30.08R
$$

  *****  WEATHER ACROSS SOUTH DAKOTA  *****

CITY           SKY/WX    TMP DP  RH WIND       PRES   REMARKS
SIOUX FALLS    FAIR      52  45  77 NW7       30.21S
BROOKINGS      MOCLDY    55  45  68 NW9       30.22R
WATERTOWN      CLOUDY    55  45  68 NW14      30.21S
HURON          FAIR      47  44  90 NW6       30.25R
SISSETON         N/A     55  44  66 N21       30.19R
ABERDEEN       FAIR      51  44  77 N7        30.25R
MITCHELL       NOT AVBL
PIERRE         NOT AVBL
MOBRIDGE       FAIR      47  39  74 N6        30.27R
RAPID CITY     FAIR      50  31  48 N9        30.35R
$$

  *****  SOME WEATHER IN NEARBY STATES *****

CITY           SKY/WX    TMP DP  RH WIND       PRES   REMARKS
GLASGOW MT     FAIR      57  34  41 S5        30.27S
GREAT FALLS MT MOCLDY    60  40  47 E10       30.35R
CHEYENNE WY    FAIR      56  38  50 SE7       30.40S
SCOTTSBLUFF NE FAIR      57  41  55 NE6       30.33R
OMAHA NE       FAIR      60  46  59 N5        30.20R
DES MOINES IA  FAIR      63  44  50 N5        30.16R
DAVENPORT IA   FAIR      57  51  80 N5        30.11S
CHICAGO IL     MOCLDY    59  51  75 W7        30.05F
EAU CLAIRE WI  FAIR      52  46  80 W6        30.03S
LA CROSSE WI   FAIR      60  50  69 NW7       30.06S
$$

  *****  SOME NATIONAL WEATHER *****

CITY           SKY/WX    TMP DP  RH WIND       PRES   REMARKS
LA GUARDIA NY  FAIR      75  62  64 NW8       29.91R
RALEIGH NC     MOCLDY    72  70  93 CALM      30.02F
ATLANTA GA     MOCLDY    72  71  97 W5        30.10R
NEW ORLEANS LA FAIR      74  73  97 SE3       30.09R
OKLAHOMA CITY  FAIR      73  55  53 SE9       30.24R
ALBUQUERQUE NM FAIR      71  48  43 E6        30.25R
SALT LAKE CITY FAIR      74  39  28 S3        30.14R
LOS ANGELES CA FAIR      64  61  90 W8        29.87R
BOISE ID       FAIR      75  38  26 N3        30.09R
SEATTLE WA     FAIR      75  51  43 N10       29.99S
$$

*** WEATHER ACROSS MANITOBA...SASKATCHEWAN AND ONTARIO ***
                ***ONTARIO***

CITY           SKY/WX    TMP DP  RH WIND       PRES   REMARKS
GERALDTON      PTCLDY    52  43  71 NE6       29.96R
THUNDER BAY    PTCLDY    50  50 100 SW5       29.94S
SIOUX LOOKOUT  CLOUDY    50  46  87 N5        30.04S
TORONTO        PTCLDY    63  52  67 W3        29.92R
BIG TROUT LK   PTCLDY    41  39  93 N3        30.05S
PICKLE LAKE    NOT AVBL
DRYDEN         MOCLDY    48  46  93 N7        30.05R
KENORA         CLOUDY    52  46  82 NW7       30.08S
$$
                *** MANITOBA***

CITY           SKY/WX    TMP DP  RH WIND       PRES   REMARKS
BRANDON        PTCLDY    41  39  93 NW3       30.22S
DAUPHIN        PTCLDY    46  45  93 W2        30.22R
ISLAND LAKE    CLOUDY    55  43  62 W9        30.09F
PILOT MOUND      N/A     43  41  93 NW5         N/A
THE PAS        PTCLDY    46  43  87 CALM      30.20S
THOMPSON       PTCLDY    43  36  75 CALM      30.13R
WINNIPEG       PTCLDY    41  39  93 W7        30.17S
LYNN LAKE      MOCLDY    50  39  66 W6        30.16F
CHURCHILL      CLOUDY    54  41  62 SW8       29.99F
GILLAM         PTCLDY    43  36  75 S3        30.09S
$$
                ***SASKATCHEWAN***

CITY           SKY/WX    TMP DP  RH WIND       PRES   REMARKS
ESTEVAN        LGT RAIN  52  46  82 E5        30.25R
KINDERSLEY     MOCLDY    55  48  76 N12       30.24F
LLOYDMINSTER   CLEAR     46  46 100 SW3       30.27R
PRINCE ALBERT  PTCLDY    50  45  81 E5        30.26R
REGINA         PTCLDY    50  45  81 W8        30.25S
YORKTON        CLOUDY    50  45  81 CALM      30.24R
N. BATTLEFORD  PTCLDY    48  46  93 NW3       30.27S
LA RONGE       MOCLDY    48  41  76 S2        30.24S
SASKATOON      MOCLDY    55  50  82 W6        30.25
SWIFT CURRENT  PTCLDY    48  43  81 SE7       30.28R
$$
NOTE: THESE ARE AUTOMATED STATIONS WITH LIMITED QUALITY CONTROL
      "FAIR" INDICATES FEW OR NO CLOUDS BELOW 12,000 FEET WITH NO
      SIGNIFICANT WEATHER AND/OR OBSTRUCTIONS TO VISIBILITY.
      SKY/WX - SKY CONDITION AND SIGNIFICANT WEATHER.
      TMP - AIR TEMPERATURE.    DP   - DEWPOINT TEMPERATURE.
      RH  - RELATIVE HUMIDITY.  PRES - PRESSURE.
      HX  - HEAT INDEX.         WCI  - WIND CHILL INDEX.
$




USA.gov is the U.S. government's official web portal to all federal, state and local government web resources and services.